Regional Weather Roundup
Issued by NWS

Home | Current Version | Previous Version | Graphics & Text | Print | Product List | Glossary On
Versions: 1 2 3 4 5 6 7 8 9 10 11 12 13 14 15 16 17 18 19 20 21 22 23 24 25 26 27 28 29 30 31 32 33 34 35 36 37 38 39 40 41 42 43 44 45 46 47 48 49 50
000
ASUS45 KBOU 181507
RWRCO

WEATHER ROUNDUP FOR COLORADO
NATIONAL WEATHER SERVICE DENVER/BOULDER CO
900 AM MDT FRI AUG 18 2017

NOTE: "FAIR" INDICATES FEW OR NO CLOUDS BELOW 12000 FEET WITH NO
SIGNIFICANT WEATHER AND/OR OBSTRUCTIONS TO VISIBILITY.

COZ001>005-013-030-031-181600-
...NORTHWEST COLORADO...

CITY           SKY/WX    TMP DP  RH WIND       PRES   REMARKS
CRAIG          FAIR      60  42  51 CALM      30.33S
HAYDEN         FAIR      59  40  49 E9        30.36R
MEEKER         FAIR      61  39  44 SE3       30.34S
RABBIT EARS PA FAIR      52  30  43 W5        30.59S
STEAMBOAT SPGS FAIR      55  41  60 CALM      30.37S
WALDEN         FAIR      55  37  50 S6        30.44S
$$

COZ006>008-011-181600-
...WEST CENTRAL VALLEYS...

CITY           SKY/WX    TMP DP  RH WIND       PRES   REMARKS
GRAND JUNCTION FAIR      72  40  31 S9        30.22R
MONTROSE       FAIR      67  38  34 SE3       30.30S
EAGLE          FAIR      56  37  49 CALM      30.40S
RIFLE          FAIR      64  42  44 NE5       30.29R
DELTA          FAIR      66  39  36 E6        30.27S
NUCLA          FAIR      66  32  28 CALM      30.33S
$$

COZ017>023-064>068-181600-
...SOUTHWEST COLORADO...

CITY           SKY/WX    TMP DP  RH WIND       PRES   REMARKS
DURANGO        FAIR      63  36  36 CALM      30.35R
CORTEZ         FAIR      66  37  34 CALM      30.29R
PAGOSA SPRINGS FAIR      62  31  30 CALM      30.42S
TELLURIDE      FAIR      59  31  34 CALM      30.53S
WOLF CREEK PAS FAIR      52  27  37 CALM      30.75S
$$

COZ009-010-012-014-032>034-037-058>063-181600-
...CENTRAL COLORADO...

CITY           SKY/WX    TMP DP  RH WIND       PRES   REMARKS
ASPEN          FAIR      61  39  44 CALM      30.41S
BUENA VISTA    FAIR      57  36  44 NE3       30.44S
COPPER MTN     FAIR      54  32  43 W8        30.69S
BERTHOUD PASS  FAIR      43  37  81 NW18G29   30.70R
COTTONWOOD PAS FAIR      63  32  31 CALM      30.56R
GUNNISON       FAIR      50  35  56 CALM      30.48S
KREMMLING      FAIR      59  43  55 CALM      30.44S
LEADVILLE      FAIR      50  34  54 CALM      30.52R
MONARCH PASS   FAIR      48  30  49 W9        30.81R
SALIDA         FAIR      57  40  54 CALM      30.50S
SUNLIGHT       FAIR      54  32  43 CALM      30.64R
WILKERSON PASS FAIR      52  30  43 CALM      30.68R
$$

COZ069>075-181600-
...SAN LUIS VALLEY/SANGRE DE CRISTO MOUNTAINS...

CITY           SKY/WX    TMP DP  RH WIND       PRES   REMARKS
ALAMOSA        FAIR      55  40  56 SE3       30.43R
DEL NORTE      FAIR      59  37  42 W10       30.46R
LA VETA PASS   NOT AVBL
SAGUACHE       FAIR      61  36  39 NW12      30.45R
$$

COZ035-036-038>040-181600-
...NORTHERN COLORADO FRONT RANGE...

CITY           SKY/WX    TMP DP  RH WIND       PRES   REMARKS
DENVER INTL AP FAIR      67  46  47 SW5       30.24S
DMNS CITY PARK   N/A     68  46  44 E9        30.25S
AURORA         MOSUNNY   64  47  53 CALM      30.27R
FRONT RANGE AP MOSUNNY   66  48  52 SW3       30.26S
ERIE MUNI ARPT FAIR      67  46  45 CALM      30.28S
BOULDER MUN AP FAIR      66  43  42 CALM      30.24S
CENTENNIAL     FAIR      67  44  43 N5        30.27R
BROOMFIELD     MOSUNNY   66  46  48 CALM      30.26S
FORT COLLINS   FAIR      67  48  50 SW3       30.22S
LONGMONT       FAIR      69  45  41 CALM      30.24S
$$

COZ041-046-047-076>085-087-088-181600-
...PIKES PEAK/PALMER DIVIDE AND SOUTHERN FOOTHILLS...

CITY           SKY/WX    TMP DP  RH WIND       PRES   REMARKS
COLO. SPRINGS  FAIR      77  42  28 NW9       30.29R
A. F. ACADEMY  FAIR      70  46  42 CALM      30.30R
SCHRIEVER AFB  FAIR      74  43  32 N8        30.28R
CHEYENNE MTN   FAIR      73  39  28 N9        30.28R
ELLICOTT       FAIR     N/A N/A N/A N7        30.26R
FALCON         FAIR      73  37  26 N7        30.33S
FORT CARSON    FAIR      72  45  37 N9        30.25R
LIMON          FAIR      68  52  56 NW9       30.24R
MONUMENT HILL  FAIR      64  41  42 N3        30.36R
CANON CITY     SUNNY     73  43  33 W20       30.23S
WALSENBURG     NOT AVBL
TRINIDAD       FAIR      71  43  36 W12       30.27R
$$

COZ042>045-048>051-090-091-181600-
...NORTHEAST COLORADO...

CITY           SKY/WX    TMP DP  RH WIND       PRES   REMARKS
GREELEY ARPT   FAIR      65  51  60 CALM      30.22R
AKRON          FAIR      67  50  54 W13       30.18S
BURLINGTON     FAIR      69  55  60 NW13      30.13S
WRAY           NOT AVBL
YUMA           FAIR      68  41  37 NW7       30.15S
STERLING       FAIR      68  54  60 W3        30.15R
HOLYOKE        FAIR      73  55  53 N10       30.12S
FORT MORGAN    FAIR      69  46  44 W8        30.20R
$$

COZ086-089-092>099-181600-
...SOUTHEAST COLORADO...

CITY           SKY/WX    TMP DP  RH WIND       PRES   REMARKS
PUEBLO         FAIR      73  45  36 CALM      30.19R
LA JUNTA       FAIR      70  52  52 NW6       30.17R
LAMAR          FAIR      73  59  61 NW8       30.11S
SPRINGFIELD      N/A     68  62  81 SW14G24   30.16F
$$



USA.gov is the U.S. government's official web portal to all federal, state and local government web resources and services.